Погода в Чёрмозе

Россия / Пермский край     58°47′03″N   56°09′02″E
темп.,
°C
ветер,
м/с
пор.,
м/с
влажн.,
%
обл.,
%
осадки,
мм/ч
давл.,
гПа
погр.,
м
29 июня, ср
ср2923:00+6ссз91388100 0.6 1014821
02:00+7ссз81384100 0.3 1013627
05:00+7ссз81383100 0.3 1013529
08:00+8ссз811800 0.0 1013544
11:00+10с610710 0.0 1013159
14:00+11ссз68676 0.0 101275
17:00+12ссз5766100 0.0 101258
20:00+12ссз576818 0.0 101148
30 июня, чт
чт3023:00+11зсз467370 0.0 101057
02:00+10зсз3479100 0.0 100952
05:00+9ссз2276100 0.0 100916
08:00+9с447356 0.0 100980
11:00+10с2274100 0.0 100935
14:00+10ссз567059 0.1 101079
17:00+11с4568100 0.1 101151
20:00+10св578720 1.0 101273
1 июля, пт
пт123:00+9св578931 2.5 1014115
02:00+8всв48859 0.0 1015186
05:00+7св34831 0.0 1017154
08:00+8ссв45820 0.0 1017210
11:00+9с44800 0.0 101765
14:00+8сз338191 0.0 101760
17:00+10зсз117398 0.0 101638
20:00+12зюз226961 0.0 101515
2 июля, сб
сб223:00+13зсз227019 0.0 101511
02:00+11зсз2281100 0.0 101410
05:00+10сз11835 0.0 101410
08:00+10сз118417 0.0 101412
11:00+9с11895 0.0 101436
14:00+10юз1180100 0.0 101326
17:00+14з0073100 0.0 101221
20:00+15зсз11695 0.0 101211
3 июля, вс
вс323:00+14ссз22706 0.0 101211
02:00+12с22855 0.0 101211
05:00+11ссз2382100 0.0 101211
08:00+11ссз338448 0.0 101213
11:00+11ссз2289100 0.0 101218
14:00+14с4478100 0.0 101129
17:00+14с457054 0.0 101130
20:00+15ссз447399 0.0 101116